Temp
-6 -7 -8 -8 -8 -8 -6 -6 -6 -5 -6 -5 -4 -4 -5 -7 -6 -6 -6 -6 -6 -5 -5 -5 -4 -4 -4 -4 -4 -4 -4 -4 -4 -5 -5 -5 -5 -5 -5 -5 -5 -5 -5 -5 -5 -5 -5 -5 -5
-7 -7 -7 -9 -8 -8 -7 -6 -7 -6 -6 -6 -5 -4 -5 -7 -7 -6 -7 -6 -6 -6 -5 -5 -5 -5 -5 -5 -5 -5 -5 -5 -5 -5 -5 -5 -5 -5 -5 -5 -5 -5 -5 -5 -5 -5 -5 -5 -5
-6 -7 -7 -8 -8 -7 -7 -6 -7 -6 -6 -6 -6 -6 -6 -7 -7 -7 -7 -7 -7 -6 -6 -5 -5 -6 -5 -5 -5 -6 -6 -6 -6 -6 -6 -6 -5 -5 -5 -5 -5 -5 -5 -5 -5 -5 -5 -5 -5
-7 -7 -7 -8 -8 -8 -7 -6 -7 -6 -6 -6 -6 -6 -7 -7 -7 -7 -7 -7 -7 -6 -6 -5 -5 -6 -6 -6 -6 -6 -6 -6 -6 -6 -6 -6 -6 -6 -6 -6 -6 -6 -5 -5 -5 -5 -5 -5 -5
-7 -7 -7 -8 -9 -7 -8 -7 -6 -8 -6 -7 -6 -7 -6 -7 -7 -7 -8 -7 -7 -7 -6 -6 -6 -6 -6 -6 -6 -6 -6 -6 -6 -6 -6 -6 -6 -6 -6 -6 -6 -6 -6 -6 -5 -5 -6 -5 -5
-7 -7 -7 -8 -8 -8 -8 -8 -6 -6 -6 -7 -6 -7 -7 -7 -7 -7 -8 -8 -7 -7 -6 -6 -7 -6 -6 -7 -7 -6 -7 -6 -6 -6 -6 -6 -6 -6 -6 -6 -6 -6 -6 -6 -6 -6 -6 -6 -6
-7 -8 -8 -8 -9 -9 -8 -8 -7 -6 -6 -6 -6 -7 -8 -8 -7 -7 -7 -7 -7 -7 -7 -7 -7 -7 -7 -7 -7 -7 -7 -7 -6 -6 -6 -6 -6 -6 -6 -6 -6 -6 -6 -6 -6 -6 -6 -6 -6
-7 -8 -8 -8 -9 -9 -9 -9 -8 -7 -6 -6 -6 -6 -8 -8 -8 -8 -7 -7 -7 -7 -7 -7 -7 -7 -7 -7 -7 -7 -7 -7 -7 -7 -7 -6 -6 -6 -6 -7 -6 -6 -6 -6 -6 -6 -6 -6 -6
-8 -8 -8 -9 -10 -10 -10 -10 -9 -9 -8 -7 -6 -7 -7 -8 -7 -7 -7 -7 -8 -8 -7 -8 -8 -8 -8 -8 -8 -7 -7 -7 -7 -7 -7 -7 -6 -6 -6 -6 -6 -6 -6 -6 -6 -6 -6 -6 -6
-8 -9 -9 -9 -10 -11 -11 -10 -10 -9 -9 -8 -7 -7 -7 -8 -8 -7 -8 -8 -8 -8 -8 -8 -8 -8 -8 -8 -8 -8 -8 -8 -7 -7 -7 -7 -7 -6 -6 -6 -6 -6 -7 -7 -6 -6 -6 -6 -6
-9 -9 -10 -10 -10 -11 -11 -11 -10 -10 -10 -9 -8 -9 -8 -8 -7 -7 -8 -8 -8 -8 -8 -8 -9 -9 -8 -8 -9 -8 -8 -8 -8 -7 -7 -7 -7 -6 -7 -7 -7 -7 -7 -7 -7 -6 -6 -6 -7
-10 -10 -10 -10 -11 -10 -10 -11 -10 -10 -9 -10 -9 -9 -9 -9 -8 -8 -8 -9 -8 -8 -7 -8 -8 -8 -8 -8 -8 -8 -8 -8 -8 -8 -7 -7 -7 -7 -7 -7 -7 -7 -7 -7 -7 -7 -7 -7 -7
-11 -11 -10 -10 -10 -10 -11 -10 -10 -10 -10 -11 -10 -9 -10 -9 -9 -8 -8 -8 -9 -8 -7 -7 -8 -8 -8 -8 -9 -9 -9 -8 -8 -8 -7 -7 -8 -7 -7 -7 -7 -7 -7 -7 -8 -8 -7 -7 -7
-11 -11 -11 -11 -10 -11 -11 -10 -12 -12 -10 -10 -11 -9 -8 -8 -8 -7 -7 -8 -8 -9 -8 -8 -8 -8 -9 -8 -9 -9 -8 -8 -8 -8 -8 -8 -8 -7 -7 -7 -8 -8 -9 -9 -8 -8 -8 -7 -7
-12 -12 -11 -11 -11 -11 -12 -11 -12 -12 -11 -10 -10 -10 -9 -11 -10 -8 -10 -11 -10 -11 -10 -9 -9 -10 -9 -10 -10 -9 -9 -9 -9 -8 -8 -9 -8 -8 -8 -8 -8 -8 -9 -9 -9 -9 -8 -8 -8
-12 -12 -12 -12 -12 -12 -13 -12 -12 -12 -12 -12 -12 -10 -11 -11 -10 -10 -11 -10 -10 -10 -11 -10 -10 -10 -10 -10 -10 -10 -9 -9 -9 -10 -9 -9 -10 -9 -9 -9 -8 -8 -8 -9 -9 -9 -9 -9 -9
-12 -12 -12 -13 -13 -12 -13 -12 -12 -13 -12 -12 -11 -10 -11 -12 -13 -13 -12 -11 -11 -11 -10 -10 -10 -10 -10 -9 -10 -10 -9 -9 -9 -9 -9 -9 -9 -10 -10 -9 -9 -9 -9 -9 -10 -10 -10 -10 -10
-12 -13 -13 -13 -13 -12 -12 -12 -12 -13 -13 -13 -11 -13 -13 -13 -14 -14 -13 -13 -12 -11 -11 -11 -10 -10 -10 -11 -11 -10 -10 -10 -10 -10 -9 -9 -9 -9 -9 -9 -10 -10 -10 -10 -10 -11 -11 -11 -11
-13 -13 -13 -13 -13 -13 -12 -13 -14 -12 -12 -13 -12 -13 -13 -14 -13 -13 -13 -12 -11 -11 -11 -11 -11 -10 -11 -11 -11 -11 -11 -11 -11 -11 -10 -10 -10 -10 -10 -10 -11 -11 -11 -11 -12 -11 -11 -11 -11
-12 -12 -12 -13 -13 -13 -13 -13 -14 -13 -13 -13 -13 -13 -13 -13 -13 -13 -13 -12 -11 -11 -11 -11 -11 -11 -11 -11 -12 -12 -12 -11 -11 -11 -11 -11 -11 -11 -11 -11 -11 -11 -11 -11 -12 -12 -12 -12 -12
-12 -12 -13 -13 -13 -13 -14 -14 -14 -14 -14 -14 -14 -13 -13 -14 -13 -12 -11 -11 -11 -12 -12 -12 -13 -13 -14 -14 -14 -14 -14 -13 -13 -12 -12 -12 -12 -12 -12 -12 -12 -12 -12 -13 -13 -13 -13 -13 -13
-12 -13 -13 -13 -14 -13 -13 -13 -14 -14 -14 -14 -14 -14 -13 -13 -13 -12 -12 -12 -12 -13 -13 -13 -14 -14 -14 -14 -14 -14 -14 -14 -13 -13 -13 -13 -13 -13 -13 -13 -13 -13 -13 -13 -14 -14 -12 -13 -13
-13 -13 -13 -13 -13 -13 -13 -14 -13 -13 -13 -13 -13 -13 -12 -12 -12 -12 -12 -13 -13 -13 -13 -13 -14 -14 -14 -14 -14 -14 -14 -14 -13 -13 -13 -13 -13 -12 -12 -14 -14 -14 -14 -14 -14 -13 -13 -14 -14
-14 -13 -13 -13 -13 -13 -13 -13 -13 -13 -13 -13 -12 -12 -12 -12 -12 -13 -13 -13 -13 -14 -14 -14 -14 -14 -14 -14 -14 -14 -14 -14 -13 -14 -14 -13 -13 -13 -13 -13 -14 -15 -15 -15 -15 -15 -15 -14 -14
-14 -14 -14 -14 -14 -14 -14 -14 -14 -13 -13 -13 -12 -12 -13 -13 -13 -13 -13 -14 -14 -14 -14 -14 -14 -14 -14 -14 -14 -14 -14 -14 -13 -13 -13 -13 -13 -14 -14 -14 -13 -13 -13 -13 -13 -14 -15 -15 -15
-14 -14 -14 -14 -14 -14 -14 -14 -13 -13 -13 -13 -13 -13 -13 -13 -13 -13 -13 -14 -14 -14 -14 -14 -14 -14 -14 -14 -14 -14 -14 -14 -14 -14 -14 -14 -14 -15 -15 -15 -15 -15 -15 -15 -16 -16 -17 -17 -18
-14 -14 -14 -14 -14 -14 -14 -14 -14 -14 -14 -14 -14 -14 -14 -14 -14 -14 -14 -14 -14 -14 -14 -14 -14 -15 -15 -15 -14 -14 -15 -15 -15 -15 -15 -15 -15 -15 -15 -16 -16 -16 -17 -17 -18 -18 -18 -17 -17
-14 -14 -14 -15 -15 -15 -14 -14 -14 -14 -15 -15 -15 -15 -15 -15 -14 -15 -15 -14 -14 -15 -14 -15 -15 -15 -14 -15 -15 -15 -14 -14 -15 -15 -15 -15 -15 -16 -16 -17 -17 -17 -17 -18 -18 -18 -17 -18 -18
-14 -14 -14 -14 -15 -15 -15 -15 -15 -15 -15 -15 -15 -15 -15 -15 -15 -15 -15 -15 -15 -15 -15 -15 -15 -15 -15 -15 -15 -15 -15 -15 -15 -15 -15 -16 -16 -16 -16 -17 -17 -17 -18 -18 -18 -18 -18 -18 -18
-14 -14 -14 -15 -15 -15 -15 -15 -16 -16 -15 -16 -16 -16 -16 -16 -16 -16 -16 -16 -16 -16 -16 -15 -15 -15 -15 -15 -15 -15 -15 -16 -16 -16 -16 -16 -17 -17 -17 -18 -17 -18 -18 -18 -18 -18 -18 -19 -19
Height
5900 5901 5901 5898 5903 5899 5905 5907 5907 5907 5906 5905 5902 5902 5905 5906 5911 5914 5913 5916 5919 5920 5920 5920 5920 5919 5920 5921 5922 5923 5923 5923 5923 5923 5923 5922 5922 5923 5923 5923 5923 5923 5923 5923 5923 5923 5923 5923 5923
5899 5899 5900 5897 5896 5898 5905 5906 5905 5907 5906 5906 5904 5899 5903 5907 5910 5912 5912 5915 5917 5919 5919 5919 5919 5919 5919 5920 5920 5921 5923 5923 5923 5923 5923 5923 5923 5923 5923 5922 5922 5922 5922 5922 5922 5922 5922 5921 5921
5896 5897 5898 5896 5890 5899 5904 5905 5903 5904 5905 5906 5908 5906 5905 5908 5911 5909 5914 5914 5915 5917 5917 5917 5918 5918 5918 5918 5919 5920 5920 5921 5921 5922 5922 5922 5922 5922 5921 5921 5920 5920 5920 5920 5920 5920 5921 5920 5920
5893 5895 5896 5892 5890 5893 5902 5904 5903 5903 5905 5906 5908 5911 5909 5910 5909 5908 5910 5913 5913 5915 5915 5915 5917 5917 5916 5917 5918 5918 5918 5919 5920 5920 5920 5920 5920 5920 5920 5919 5919 5919 5919 5919 5918 5918 5918 5918 5918
5890 5892 5892 5890 5886 5889 5896 5900 5903 5905 5903 5904 5905 5910 5911 5908 5908 5905 5905 5911 5914 5916 5916 5917 5918 5917 5917 5917 5917 5918 5917 5918 5918 5918 5918 5917 5917 5917 5917 5917 5917 5917 5917 5916 5916 5915 5914 5914 5914
5886 5889 5890 5888 5884 5884 5893 5894 5898 5900 5903 5904 5905 5904 5908 5905 5906 5905 5906 5908 5912 5913 5915 5915 5915 5915 5916 5916 5916 5916 5916 5916 5916 5916 5916 5916 5915 5914 5914 5914 5914 5914 5914 5913 5912 5911 5911 5911 5910
5882 5885 5887 5886 5884 5878 5886 5889 5892 5895 5896 5903 5906 5906 5905 5905 5906 5907 5906 5909 5911 5911 5912 5914 5912 5912 5913 5914 5914 5913 5913 5914 5914 5914 5914 5913 5913 5912 5911 5911 5911 5910 5910 5909 5909 5908 5907 5907 5906
5877 5880 5882 5884 5882 5877 5876 5883 5887 5889 5892 5900 5902 5903 5904 5905 5905 5907 5906 5907 5908 5910 5910 5909 5909 5909 5909 5910 5911 5910 5911 5911 5911 5911 5910 5910 5909 5908 5907 5907 5906 5906 5906 5905 5904 5903 5902 5902 5901
5871 5875 5877 5881 5879 5878 5869 5878 5884 5885 5886 5893 5897 5899 5900 5900 5901 5903 5905 5905 5906 5907 5907 5906 5906 5906 5907 5907 5907 5906 5906 5906 5906 5906 5906 5906 5905 5904 5903 5901 5901 5901 5901 5900 5899 5898 5897 5897 5896
5864 5869 5871 5875 5877 5874 5872 5872 5873 5883 5882 5885 5889 5890 5895 5900 5900 5901 5902 5903 5904 5903 5904 5904 5906 5905 5904 5902 5902 5901 5902 5901 5900 5900 5900 5900 5899 5898 5897 5896 5896 5896 5895 5895 5894 5893 5892 5891 5890
5858 5864 5866 5868 5869 5870 5869 5866 5870 5875 5877 5880 5883 5885 5890 5894 5896 5897 5897 5899 5899 5900 5901 5900 5898 5897 5897 5897 5896 5895 5894 5893 5894 5894 5895 5894 5893 5892 5891 5890 5889 5890 5889 5888 5888 5887 5886 5885 5885
5851 5858 5860 5862 5862 5867 5866 5862 5866 5869 5869 5871 5879 5880 5884 5887 5891 5893 5893 5893 5893 5894 5893 5895 5897 5896 5895 5893 5890 5889 5889 5888 5889 5890 5889 5887 5886 5885 5884 5883 5883 5883 5883 5882 5880 5878 5878 5877 5877
5843 5852 5853 5856 5858 5864 5864 5851 5859 5865 5866 5865 5871 5873 5877 5879 5882 5887 5889 5888 5887 5887 5886 5889 5890 5888 5887 5885 5883 5884 5884 5883 5882 5882 5880 5879 5878 5877 5877 5876 5875 5874 5873 5872 5871 5870 5869 5869 5868
5838 5843 5848 5850 5855 5856 5858 5856 5851 5854 5855 5858 5856 5866 5867 5872 5875 5878 5879 5880 5881 5881 5881 5879 5880 5880 5878 5877 5878 5876 5876 5875 5874 5873 5872 5871 5870 5868 5868 5867 5866 5866 5865 5863 5862 5860 5860 5860 5858
5833 5838 5842 5846 5849 5850 5852 5852 5849 5861 5856 5850 5859 5865 5865 5864 5871 5874 5872 5872 5871 5871 5871 5871 5869 5870 5868 5867 5868 5866 5864 5864 5864 5864 5863 5862 5862 5860 5859 5858 5857 5857 5856 5853 5851 5849 5849 5848 5846
5830 5834 5837 5840 5842 5844 5844 5849 5852 5850 5846 5842 5853 5859 5863 5865 5865 5863 5862 5864 5866 5866 5865 5865 5863 5862 5861 5860 5859 5858 5858 5857 5855 5854 5853 5852 5852 5850 5848 5849 5847 5846 5845 5843 5840 5838 5836 5836 5835
5826 5829 5832 5834 5837 5839 5842 5850 5849 5847 5843 5846 5843 5854 5854 5856 5854 5854 5857 5858 5857 5857 5858 5860 5858 5858 5855 5854 5852 5851 5849 5848 5847 5845 5845 5843 5841 5841 5840 5838 5837 5836 5834 5833 5831 5827 5826 5824 5823
5823 5824 5827 5830 5833 5838 5840 5844 5840 5840 5839 5839 5846 5845 5845 5845 5845 5848 5851 5852 5852 5850 5851 5851 5851 5849 5848 5845 5844 5842 5841 5839 5839 5838 5836 5834 5833 5830 5828 5827 5827 5824 5822 5821 5818 5816 5814 5812 5810
5821 5823 5826 5829 5831 5836 5837 5832 5835 5836 5837 5837 5839 5839 5839 5840 5839 5840 5843 5845 5847 5846 5845 5843 5842 5842 5838 5836 5835 5836 5835 5833 5830 5827 5824 5822 5819 5818 5818 5816 5815 5813 5811 5808 5806 5804 5801 5798 5797
5821 5822 5823 5826 5828 5831 5831 5831 5831 5830 5832 5833 5832 5834 5833 5835 5836 5836 5836 5837 5837 5837 5835 5834 5833 5831 5831 5829 5826 5824 5823 5821 5819 5816 5812 5809 5808 5806 5804 5803 5801 5800 5798 5796 5793 5789 5785 5783 5781
5819 5820 5821 5823 5824 5827 5829 5825 5826 5826 5827 5827 5827 5828 5828 5828 5830 5829 5829 5830 5829 5828 5827 5827 5827 5825 5823 5820 5818 5816 5814 5810 5809 5807 5805 5801 5799 5795 5793 5791 5789 5787 5785 5783 5779 5776 5772 5769 5767
5816 5817 5819 5820 5821 5822 5824 5825 5820 5823 5823 5822 5822 5822 5823 5822 5822 5822 5821 5820 5821 5821 5820 5819 5818 5817 5815 5813 5811 5810 5806 5802 5800 5798 5793 5790 5787 5784 5782 5778 5776 5774 5771 5768 5767 5765 5761 5756 5753
5813 5813 5814 5815 5815 5815 5816 5817 5814 5816 5819 5818 5817 5816 5816 5816 5816 5815 5814 5814 5814 5813 5811 5811 5810 5809 5808 5804 5801 5798 5797 5793 5789 5787 5784 5779 5775 5771 5767 5765 5761 5760 5756 5753 5751 5749 5745 5743 5738
5809 5810 5809 5810 5809 5808 5808 5809 5807 5809 5811 5811 5810 5809 5809 5808 5808 5807 5806 5805 5804 5803 5802 5801 5801 5799 5797 5794 5791 5787 5785 5782 5778 5773 5769 5765 5760 5756 5751 5748 5747 5744 5741 5736 5733 5730 5725 5722 5719
5805 5805 5803 5803 5801 5799 5800 5799 5799 5801 5804 5804 5803 5802 5801 5800 5799 5797 5796 5795 5794 5793 5792 5791 5789 5787 5785 5782 5778 5773 5769 5765 5762 5759 5755 5750 5746 5742 5738 5733 5728 5725 5721 5718 5714 5710 5707 5702 5699
5798 5798 5798 5795 5794 5794 5791 5791 5794 5793 5795 5796 5796 5796 5795 5793 5792 5790 5789 5787 5785 5784 5782 5780 5777 5773 5769 5766 5763 5761 5757 5752 5745 5741 5737 5734 5728 5723 5717 5713 5709 5705 5701 5697 5693 5689 5684 5680 5677
5794 5794 5793 5791 5789 5788 5787 5788 5788 5789 5789 5789 5790 5789 5788 5787 5786 5784 5782 5779 5776 5774 5772 5767 5763 5760 5755 5752 5748 5742 5737 5731 5727 5722 5716 5712 5708 5705 5700 5696 5692 5687 5683 5679 5676 5673 5667 5662 5658
5791 5790 5790 5788 5786 5784 5783 5783 5783 5785 5785 5785 5785 5784 5782 5780 5777 5774 5772 5769 5765 5762 5758 5754 5750 5747 5742 5736 5730 5724 5719 5713 5707 5702 5696 5691 5687 5682 5679 5676 5673 5670 5666 5662 5658 5654 5650 5646 5642
5787 5786 5785 5785 5783 5780 5778 5780 5779 5778 5778 5778 5777 5775 5773 5770 5766 5762 5758 5754 5751 5747 5743 5738 5733 5727 5721 5716 5711 5705 5699 5693 5685 5679 5672 5667 5664 5661 5659 5656 5654 5651 5649 5645 5641 5637 5633 5629 5625
5781 5781 5781 5779 5779 5776 5774 5775 5773 5771 5770 5769 5767 5764 5761 5757 5753 5749 5745 5741 5737 5732 5726 5720 5715 5710 5704 5698 5693 5687 5681 5674 5668 5662 5655 5648 5644 5640 5638 5636 5635 5633 5630 5627 5623 5620 5616 5612 5608
Wind_Speed
13 13 15 21 18 18 13 9 5 9 5 7 5 6 17 20 16 15 14 10 6 7 8 9 9 10 9 8 8 7 6 4 4 4 3 2 1 0 2 3 5 6 7 8 9 10 10 10 9
16 16 17 22 23 21 10 10 12 5 13 9 7 10 17 26 18 12 14 11 8 8 9 9 9 8 8 8 7 5 2 1 1 2 2 2 3 3 4 5 6 7 8 8 9 9 8 9 10
19 19 19 24 31 21 13 10 14 13 17 15 14 19 24 25 23 18 12 10 11 11 12 10 8 8 7 6 6 5 4 4 4 4 5 5 5 6 6 6 7 8 9 10 11 11 11 10 10
22 22 21 27 31 28 16 15 10 12 18 20 18 16 24 24 21 19 15 13 13 14 11 10 8 7 5 5 5 5 5 5 6 7 7 7 8 8 8 9 10 10 11 12 12 13 13 13 12
27 25 25 29 34 32 19 26 21 15 17 20 22 18 17 19 19 19 20 15 11 9 6 5 4 3 4 5 5 6 6 7 9 10 11 10 11 12 12 12 13 14 14 14 15 16 16 17 16
30 29 28 30 35 39 26 27 29 30 22 13 21 23 22 22 20 17 15 15 13 10 8 7 6 5 7 8 7 8 8 9 10 12 14 15 14 14 16 16 18 18 19 19 19 20 20 21 21
30 32 32 33 34 40 34 32 23 29 36 24 16 23 26 19 16 15 17 14 11 10 9 8 6 8 11 12 14 14 15 15 16 17 18 18 19 19 19 20 20 21 21 22 22 24 24 25 25
31 33 35 33 34 39 41 36 22 32 32 31 18 19 31 24 14 16 16 15 14 11 10 10 10 12 14 16 18 19 20 20 21 22 22 22 23 23 22 21 23 24 24 24 25 26 26 26 26
31 32 36 36 32 33 42 38 33 24 25 28 31 23 19 35 25 21 21 18 17 16 15 13 14 16 17 18 20 22 22 22 24 24 25 26 27 26 25 25 25 25 26 26 27 27 28 28 29
34 31 33 36 35 27 33 37 41 31 26 30 27 24 21 19 21 15 21 18 22 19 19 16 15 16 20 22 22 25 25 26 27 28 29 29 29 30 28 27 28 27 26 27 28 29 30 31 33
38 33 28 33 40 36 35 37 39 38 32 24 25 24 25 23 21 26 27 24 26 25 27 22 19 19 21 23 25 28 29 27 28 30 31 32 32 32 31 30 30 30 30 31 31 31 33 34 36
42 37 34 32 38 43 37 42 45 40 41 33 26 27 24 20 21 25 29 31 30 30 33 32 26 28 29 27 32 33 33 36 33 30 31 36 35 35 35 35 36 35 35 33 34 33 37 38 40
43 38 40 37 34 34 45 37 40 46 34 28 35 35 33 35 34 33 34 35 34 35 36 38 32 33 29 30 32 28 30 30 36 39 36 34 35 35 35 34 36 35 33 34 34 38 40 44 46
35 35 37 39 36 33 38 53 29 16 34 30 22 34 39 41 33 34 36 39 33 29 29 34 31 29 32 29 28 31 34 34 34 34 33 32 33 35 35 35 35 37 36 39 42 45 46 50 52
30 27 30 34 35 33 29 35 38 34 33 38 27 24 25 23 31 35 30 27 26 23 21 28 29 31 30 28 30 35 36 39 38 35 37 36 33 34 33 36 36 38 41 45 47 49 50 50 49
24 23 24 28 32 30 28 26 17 21 32 30 26 42 20 21 25 30 29 32 30 29 25 30 28 26 27 29 33 35 36 33 36 38 42 38 45 45 44 45 43 44 47 51 47 53 53 47 45
16 22 24 27 29 30 26 20 10 14 25 28 37 33 31 10 10 10 17 24 22 26 32 28 25 30 31 32 36 39 41 38 40 41 42 43 43 46 46 47 51 43 47 48 48 48 49 46 45
18 19 21 24 27 26 23 21 19 18 22 21 19 10 12 9 16 16 19 16 20 23 27 31 33 31 34 33 35 39 41 42 42 44 45 45 46 46 47 46 44 47 47 47 48 47 47 49 49
14 15 18 19 21 23 26 17 19 15 23 23 19 18 17 21 20 15 17 22 27 30 30 31 32 35 37 38 36 35 34 37 38 40 43 45 47 46 46 47 46 45 44 48 49 50 53 53 56
14 16 16 18 21 24 24 22 21 10 22 24 23 24 25 23 23 21 24 28 29 32 32 33 30 33 34 32 34 35 36 39 42 45 48 50 52 53 53 52 53 54 54 54 54 52 56 59 60
15 16 17 21 22 26 21 26 13 14 11 17 22 25 25 28 31 29 28 29 32 33 35 36 32 32 34 36 38 42 45 47 48 51 53 55 56 57 56 56 57 55 51 49 53 53 57 58 62
20 21 21 23 23 23 27 30 23 18 18 20 24 28 30 33 34 33 35 36 37 38 37 38 35 35 38 42 44 46 47 50 49 51 52 56 56 58 59 59 56 57 53 50 53 55 60 58 64
24 24 25 25 26 29 28 28 29 31 28 30 32 34 38 39 39 41 44 49 44 41 42 42 43 42 45 46 49 51 48 49 48 54 61 64 67 69 67 59 61 58 57 59 64 66 67 69 65
25 25 27 28 29 32 34 37 39 37 35 34 38 38 38 37 39 41 43 44 44 45 46 47 47 47 49 51 55 53 53 53 60 67 67 70 70 69 69 67 59 59 65 64 66 66 70 73 76
20 22 25 29 29 34 35 38 41 40 39 37 37 37 37 38 39 41 43 45 47 49 50 48 50 52 54 57 57 59 63 67 71 75 71 68 67 65 65 65 68 69 68 71 74 71 71 73 75
19 18 18 21 27 29 31 34 33 35 35 35 36 36 37 40 42 47 47 46 46 48 49 51 51 59 64 62 63 67 72 76 73 70 67 66 67 68 70 71 72 73 73 73 72 74 71 72 71
17 17 14 17 22 25 28 29 30 31 31 33 35 36 37 36 44 48 46 49 53 55 59 60 65 67 66 70 76 74 73 71 71 71 72 72 72 72 72 72 71 70 68 67 67 68 70 72 73
16 16 16 15 20 24 24 26 29 30 33 34 35 36 38 40 46 48 52 53 57 61 65 69 70 72 73 71 70 71 72 73 74 74 74 75 74 72 70 68 65 64 67 65 63 63 65 67 68
16 16 17 17 18 22 26 25 27 31 34 37 40 41 44 49 53 55 57 60 64 66 68 68 68 69 70 72 73 73 73 74 75 75 75 73 70 68 66 66 66 66 64 63 63 62 61 68 70
20 17 16 17 19 22 25 26 28 30 33 36 38 42 45 49 52 55 58 61 62 62 65 68 69 70 70 69 69 69 68 68 69 70 71 73 73 72 70 67 64 61 57 53 51 53 55 57 58
Wind_Direction
229 226 204 228 225 230 241 259 235 191 105 89 162 179 185 148 145 150 136 140 155 168 171 158 150 139 143 142 138 143 149 145 136 134 129 125 140 238 312 329 329 326 326 327 327 327 324 318 317
232 231 215 239 236 235 216 230 245 247 129 107 120 164 186 168 166 168 142 152 170 186 179 167 158 152 158 155 152 157 173 233 306 318 317 314 312 309 313 320 322 319 318 321 321 317 311 307 306
235 234 227 229 236 242 220 215 231 228 156 143 120 123 141 160 173 159 157 161 176 191 179 173 170 168 172 178 183 191 207 231 248 258 271 281 288 292 295 295 297 298 299 305 310 310 312 313 311
238 234 235 230 241 235 229 209 188 216 164 152 150 157 150 158 158 155 161 183 188 193 184 174 183 186 183 194 203 213 226 249 262 272 274 282 285 286 289 291 292 293 294 295 296 299 297 295 296
241 238 236 235 242 240 245 227 224 207 181 178 166 179 176 166 177 171 169 187 195 201 184 188 196 213 214 220 226 237 245 260 270 273 277 279 285 289 292 292 289 288 286 285 284 284 285 285 284
242 242 238 237 247 247 245 250 230 236 226 217 192 181 195 189 190 180 181 187 198 204 214 208 210 239 256 261 263 269 272 271 276 284 288 290 285 287 288 288 287 287 288 286 284 283 283 282 283
250 243 240 239 245 254 243 254 235 233 244 236 240 211 200 193 192 206 194 198 205 202 208 223 235 255 265 267 268 267 270 275 277 278 282 287 291 290 287 286 286 286 284 285 287 287 287 288 288
249 245 240 240 243 254 256 246 238 238 238 241 237 236 207 195 223 219 209 206 215 231 239 247 256 262 270 272 272 270 270 272 275 278 280 281 280 280 280 280 282 284 285 286 287 287 288 288 289
256 245 243 234 243 249 261 257 253 229 229 230 233 238 235 195 206 222 233 229 235 243 249 255 265 275 278 279 272 271 270 270 271 274 278 279 279 279 278 276 277 278 281 283 285 286 286 287 288
253 251 244 239 234 236 248 256 259 249 232 231 225 231 234 238 196 230 231 238 239 238 255 254 264 268 281 283 272 267 265 267 268 271 273 272 274 275 274 275 275 275 278 281 281 281 283 283 283
250 250 247 243 234 236 235 251 255 259 233 231 225 226 235 238 213 216 231 234 249 250 252 253 262 262 267 266 260 259 256 260 268 272 275 277 279 277 275 274 273 274 276 275 276 276 278 280 285
249 244 246 247 240 231 239 248 253 259 243 222 232 226 226 224 222 230 232 236 245 255 256 255 269 264 265 275 269 265 264 259 264 271 277 275 276 276 276 275 273 273 274 275 274 274 281 281 283
250 245 242 241 248 246 240 245 245 244 251 222 238 219 227 232 233 230 232 247 254 263 270 268 268 266 269 268 272 279 278 274 268 264 274 274 271 272 271 271 272 274 279 278 279 279 279 283 286
252 246 244 243 243 246 245 251 260 259 263 228 223 235 217 234 237 246 256 252 257 268 267 266 266 263 274 272 272 268 271 273 270 266 271 273 273 274 274 276 277 276 277 278 278 279 283 287 288
253 251 244 245 247 251 250 255 279 271 267 258 253 209 239 238 260 262 265 261 257 256 278 281 271 273 272 271 276 270 264 279 275 272 265 269 277 280 281 280 283 282 284 283 284 283 286 286 285
249 252 251 241 242 242 248 253 266 274 247 250 269 255 234 231 259 258 252 264 252 257 249 262 266 268 273 269 269 271 271 277 279 278 272 277 271 274 284 289 285 282 281 284 284 286 287 283 281
251 251 244 229 233 239 247 247 238 248 260 262 263 268 265 230 231 258 264 250 244 258 244 246 260 266 267 272 273 272 276 276 275 278 278 276 277 277 274 279 283 282 281 280 279 277 279 277 277
258 247 233 225 230 237 246 250 240 270 247 260 251 240 263 263 252 239 250 259 272 274 265 260 267 273 276 274 272 271 273 276 278 277 275 275 275 276 278 277 279 277 277 275 272 273 271 272 276
246 239 234 235 239 237 250 243 257 253 240 226 254 267 256 269 270 265 273 270 272 265 266 266 269 269 270 268 269 274 280 280 282 280 278 280 279 280 279 278 274 273 273 273 272 270 270 272 275
250 249 244 233 234 235 249 254 259 243 228 230 243 252 249 263 281 280 271 272 269 267 265 264 264 268 272 283 293 293 294 289 287 287 286 287 288 287 285 282 283 285 283 274 277 277 275 274 274
256 254 248 247 242 238 249 256 277 260 237 238 248 261 263 270 276 272 267 266 270 271 273 279 286 292 301 299 297 298 297 294 293 292 291 289 288 288 287 287 286 281 279 277 277 276 277 275 277
255 255 257 251 247 241 241 249 268 243 257 257 249 257 267 275 278 278 279 279 277 275 279 285 289 288 287 290 292 293 291 290 291 291 287 287 289 288 290 287 285 284 273 272 273 275 270 273 278
257 254 253 253 245 243 241 251 247 255 254 255 255 265 276 274 273 275 276 279 277 273 276 278 280 282 283 285 286 289 285 278 281 286 286 287 288 287 286 281 279 277 277 275 276 271 270 274 273
270 266 264 261 262 258 252 250 253 255 255 256 261 270 273 273 273 274 274 270 270 272 273 272 274 279 279 282 282 278 277 277 282 289 289 288 286 285 284 283 279 274 274 272 277 278 278 276 273
268 266 270 263 262 260 257 256 256 261 264 266 265 266 269 268 268 268 267 265 264 264 268 276 278 276 278 282 280 281 286 287 286 284 285 284 282 281 280 279 279 278 277 274 278 280 277 274 273
277 273 270 273 259 259 260 260 265 263 265 266 267 268 270 268 273 271 266 266 270 272 272 275 273 280 285 284 282 280 279 283 288 290 289 288 288 288 288 287 287 287 287 286 286 285 284 283 281
270 276 278 275 269 264 263 268 264 264 265 269 273 278 275 269 271 269 268 270 271 273 273 275 280 282 279 282 288 290 291 290 289 288 287 287 287 286 285 285 285 285 285 284 283 283 283 282 282
281 281 277 271 267 269 277 271 269 269 271 271 273 275 270 271 274 276 271 271 272 273 275 275 278 286 287 288 288 289 289 289 289 288 288 288 287 286 285 285 284 283 284 285 284 283 283 283 281
284 281 279 273 269 273 275 275 276 274 274 273 272 272 271 272 274 273 272 273 275 280 285 288 289 290 291 292 291 292 292 292 292 291 290 288 288 286 285 284 284 285 285 285 284 284 281 279 278
285 285 278 273 270 272 275 279 283 282 280 280 279 278 278 277 278 279 282 285 288 290 289 289 289 290 290 290 291 292 292 291 290 289 288 286 286 285 285 285 286 286 287 287 286 284 282 281 279